owner,sensor,date,latitude,longitude,air_pressure(mBar),qcFlag 
COMPS,ioos:station:USF.COMPS:C10:1,2017-02-01T00:05:00Z,27.1690,-82.9260,1021.34,1111122 
COMPS,ioos:station:USF.COMPS:C10:1,2017-02-01T00:35:00Z,27.1690,-82.9260,1021.51,1111122 
COMPS,ioos:station:USF.COMPS:C10:1,2017-02-01T01:05:00Z,27.1690,-82.9260,1021.62,1111122 
COMPS,ioos:station:USF.COMPS:C10:1,2017-02-01T01:35:00Z,27.1690,-82.9260,1021.62,1111122 
COMPS,ioos:station:USF.COMPS:C10:1,2017-02-01T02:05:00Z,27.1690,-82.9260,1021.77,1111122 
COMPS,ioos:station:USF.COMPS:C10:1,2017-02-01T02:35:00Z,27.1690,-82.9260,1021.76,1111122 
COMPS,ioos:station:USF.COMPS:C10:1,2017-02-01T03:05:00Z,27.1690,-82.9260,1021.73,1111122 
COMPS,ioos:station:USF.COMPS:C10:1,2017-02-01T03:35:00Z,27.1690,-82.9260,1021.76,1111122 
COMPS,ioos:station:USF.COMPS:C10:1,2017-02-01T04:05:00Z,27.1690,-82.9260,1021.77,1111122 
COMPS,ioos:station:USF.COMPS:C10:1,2017-02-01T04:35:00Z,27.1690,-82.9260,1021.59,1111122 
COMPS,ioos:station:USF.COMPS:C10:1,2017-02-01T05:05:00Z,27.1690,-82.9260,1021.43,1111122 
COMPS,ioos:station:USF.COMPS:C10:1,2017-02-01T05:35:00Z,27.1690,-82.9260,1021.37,1111122 
COMPS,ioos:station:USF.COMPS:C10:1,2017-02-01T06:05:00Z,27.1690,-82.9260,1021.25,1111122 
COMPS,ioos:station:USF.COMPS:C10:1,2017-02-01T06:35:00Z,27.1690,-82.9260,1021.26,1111122 
COMPS,ioos:station:USF.COMPS:C10:1,2017-02-01T07:05:00Z,27.1690,-82.9260,1020.99,1111122 
COMPS,ioos:station:USF.COMPS:C10:1,2017-02-01T07:35:00Z,27.1690,-82.9260,1020.81,1111122 
COMPS,ioos:station:USF.COMPS:C10:1,2017-02-01T11:05:00Z,27.1690,-82.9260,1020.7,1111122 
COMPS,ioos:station:USF.COMPS:C10:1,2017-02-01T11:35:00Z,27.1690,-82.9260,1020.83,1111122 
COMPS,ioos:station:USF.COMPS:C10:1,2017-02-01T12:05:00Z,27.1690,-82.9260,1020.87,1111122 
COMPS,ioos:station:USF.COMPS:C10:1,2017-02-01T12:35:00Z,27.1690,-82.9260,1021.32,1111122 
COMPS,ioos:station:USF.COMPS:C10:1,2017-02-01T16:05:00Z,27.1690,-82.9260,1022.74,1111122 
COMPS,ioos:station:USF.COMPS:C10:1,2017-02-01T16:35:00Z,27.1690,-82.9260,1022.41,1111122 
COMPS,ioos:station:USF.COMPS:C10:1,2017-02-01T18:05:00Z,27.1690,-82.9260,1020.78,1111122 
COMPS,ioos:station:USF.COMPS:C10:1,2017-02-01T18:35:00Z,27.1690,-82.9260,1020.2,1111122 
COMPS,ioos:station:USF.COMPS:C10:1,2017-02-01T19:05:00Z,27.1690,-82.9260,1019.77,1111122 
COMPS,ioos:station:USF.COMPS:C10:1,2017-02-01T19:35:00Z,27.1690,-82.9260,1019.79,1111122 
COMPS,ioos:station:USF.COMPS:C10:1,2017-02-01T20:05:00Z,27.1690,-82.9260,1019.68,1111122 
COMPS,ioos:station:USF.COMPS:C10:1,2017-02-01T20:35:00Z,27.1690,-82.9260,1019.45,1111122 
COMPS,ioos:station:USF.COMPS:C10:1,2017-02-01T21:05:00Z,27.1690,-82.9260,1019.46,1111122 
COMPS,ioos:station:USF.COMPS:C10:1,2017-02-01T21:35:00Z,27.1690,-82.9260,1019.62,1111122 
COMPS,ioos:station:USF.COMPS:C10:1,2017-02-01T22:05:00Z,27.1690,-82.9260,1019.9,1111122 
COMPS,ioos:station:USF.COMPS:C10:1,2017-02-01T22:35:00Z,27.1690,-82.9260,1020.25,1111122 
COMPS,ioos:station:USF.COMPS:C10:1,2017-02-02T00:05:00Z,27.1690,-82.9260,1020.41,1111122 
COMPS,ioos:station:USF.COMPS:C10:1,2017-02-02T00:35:00Z,27.1690,-82.9260,1020.63,1111122 
COMPS,ioos:station:USF.COMPS:C10:1,2017-02-02T01:05:00Z,27.1690,-82.9260,1020.84,1111122 
COMPS,ioos:station:USF.COMPS:C10:1,2017-02-02T01:35:00Z,27.1690,-82.9260,1020.74,1111122 
COMPS,ioos:station:USF.COMPS:C10:1,2017-02-02T02:05:00Z,27.1690,-82.9260,1021.03,1111122 
COMPS,ioos:station:USF.COMPS:C10:1,2017-02-02T02:35:00Z,27.1690,-82.9260,1021.03,1111122 
COMPS,ioos:station:USF.COMPS:C10:1,2017-02-02T03:05:00Z,27.1690,-82.9260,1021.15,1111122 
COMPS,ioos:station:USF.COMPS:C10:1,2017-02-02T03:35:00Z,27.1690,-82.9260,1021.13,1111122 
COMPS,ioos:station:USF.COMPS:C10:1,2017-02-02T08:05:00Z,27.1690,-82.9260,1019.88,1111122 
COMPS,ioos:station:USF.COMPS:C10:1,2017-02-02T08:35:00Z,27.1690,-82.9260,1019.67,1111122 
COMPS,ioos:station:USF.COMPS:C10:1,2017-02-02T10:05:00Z,27.1690,-82.9260,1019.84,1111122 
COMPS,ioos:station:USF.COMPS:C10:1,2017-02-02T10:35:00Z,27.1690,-82.9260,1020.07,1111122 
COMPS,ioos:station:USF.COMPS:C10:1,2017-02-02T11:05:00Z,27.1690,-82.9260,1020.48,1111122 
COMPS,ioos:station:USF.COMPS:C10:1,2017-02-02T11:35:00Z,27.1690,-82.9260,1020.74,1111122 
COMPS,ioos:station:USF.COMPS:C10:1,2017-02-02T12:05:00Z,27.1690,-82.9260,1020.85,1111122 
COMPS,ioos:station:USF.COMPS:C10:1,2017-02-02T12:35:00Z,27.1690,-82.9260,1021.19,1111122 
COMPS,ioos:station:USF.COMPS:C10:1,2017-02-02T14:05:00Z,27.1690,-82.9260,1022.13,1111122 
COMPS,ioos:station:USF.COMPS:C10:1,2017-02-02T14:35:00Z,27.1690,-82.9260,1022.28,1111122 
COMPS,ioos:station:USF.COMPS:C10:1,2017-02-02T15:05:00Z,27.1690,-82.9260,1022.45,1111122 
COMPS,ioos:station:USF.COMPS:C10:1,2017-02-02T15:35:00Z,27.1690,-82.9260,1022.73,1111122 
COMPS,ioos:station:USF.COMPS:C10:1,2017-02-02T17:05:00Z,27.1690,-82.9260,1021.78,1111122 
COMPS,ioos:station:USF.COMPS:C10:1,2017-02-02T17:35:00Z,27.1690,-82.9260,1021.16,1111122 
COMPS,ioos:station:USF.COMPS:C10:1,2017-02-02T18:05:00Z,27.1690,-82.9260,1020.51,1111122 
COMPS,ioos:station:USF.COMPS:C10:1,2017-02-02T18:35:00Z,27.1690,-82.9260,1020.34,1111122 
COMPS,ioos:station:USF.COMPS:C10:1,2017-02-02T19:05:00Z,27.1690,-82.9260,1019.91,1111122 
COMPS,ioos:station:USF.COMPS:C10:1,2017-02-02T19:35:00Z,27.1690,-82.9260,1019.72,1111122 
COMPS,ioos:station:USF.COMPS:C10:1,2017-02-02T20:05:00Z,27.1690,-82.9260,1019.72,1111122 
COMPS,ioos:station:USF.COMPS:C10:1,2017-02-02T20:35:00Z,27.1690,-82.9260,1019.51,1111122 
COMPS,ioos:station:USF.COMPS:C10:1,2017-02-02T21:05:00Z,27.1690,-82.9260,1019.8,1111122 
COMPS,ioos:station:USF.COMPS:C10:1,2017-02-02T21:35:00Z,27.1690,-82.9260,1019.98,1111122 
COMPS,ioos:station:USF.COMPS:C10:1,2017-02-02T22:05:00Z,27.1690,-82.9260,1020.03,1111122 
COMPS,ioos:station:USF.COMPS:C10:1,2017-02-02T22:35:00Z,27.1690,-82.9260,1020.24,1111122 
COMPS,ioos:station:USF.COMPS:C10:1,2017-02-02T23:05:00Z,27.1690,-82.9260,1020.34,1111122 
COMPS,ioos:station:USF.COMPS:C10:1,2017-02-02T23:35:00Z,27.1690,-82.9260,1020.66,1111122 
COMPS,ioos:station:USF.COMPS:C10:1,2017-02-03T00:05:00Z,27.1690,-82.9260,1020.81,1111122 
COMPS,ioos:station:USF.COMPS:C10:1,2017-02-03T00:35:00Z,27.1690,-82.9260,1020.7,1111122 
COMPS,ioos:station:USF.COMPS:C10:1,2017-02-03T01:05:00Z,27.1690,-82.9260,1020.82,1111122 
COMPS,ioos:station:USF.COMPS:C10:1,2017-02-03T01:35:00Z,27.1690,-82.9260,1021.03,1111122 
COMPS,ioos:station:USF.COMPS:C10:1,2017-02-03T02:05:00Z,27.1690,-82.9260,1020.89,1111122 
COMPS,ioos:station:USF.COMPS:C10:1,2017-02-03T02:35:00Z,27.1690,-82.9260,1020.89,1111122 
COMPS,ioos:station:USF.COMPS:C10:1,2017-02-03T03:05:00Z,27.1690,-82.9260,1020.89,1111122 
COMPS,ioos:station:USF.COMPS:C10:1,2017-02-03T03:35:00Z,27.1690,-82.9260,1020.89,1111122 
COMPS,ioos:station:USF.COMPS:C10:1,2017-02-03T04:05:00Z,27.1690,-82.9260,1020.88,1111122 
COMPS,ioos:station:USF.COMPS:C10:1,2017-02-03T04:35:00Z,27.1690,-82.9260,1020.84,1111122 
COMPS,ioos:station:USF.COMPS:C10:1,2017-02-03T06:05:00Z,27.1690,-82.9260,1020.4,1111122 
COMPS,ioos:station:USF.COMPS:C10:1,2017-02-03T06:35:00Z,27.1690,-82.9260,1020.14,1111122 
COMPS,ioos:station:USF.COMPS:C10:1,2017-02-03T07:05:00Z,27.1690,-82.9260,1020.12,1111122 
COMPS,ioos:station:USF.COMPS:C10:1,2017-02-03T07:35:00Z,27.1690,-82.9260,1019.86,1111122 
COMPS,ioos:station:USF.COMPS:C10:1,2017-02-03T11:05:00Z,27.1690,-82.9260,1020.46,1111122 
COMPS,ioos:station:USF.COMPS:C10:1,2017-02-03T11:35:00Z,27.1690,-82.9260,1020.83,1111122 
COMPS,ioos:station:USF.COMPS:C10:1,2017-02-03T13:05:00Z,27.1690,-82.9260,1021.42,1111122 
COMPS,ioos:station:USF.COMPS:C10:1,2017-02-03T13:35:00Z,27.1690,-82.9260,1021.75,1111122 
COMPS,ioos:station:USF.COMPS:C10:1,2017-02-03T17:05:00Z,27.1690,-82.9260,1021.61,1111122 
COMPS,ioos:station:USF.COMPS:C10:1,2017-02-03T17:35:00Z,27.1690,-82.9260,1021.03,1111122 
COMPS,ioos:station:USF.COMPS:C10:1,2017-02-03T18:05:00Z,27.1690,-82.9260,1020.7,1111122 
COMPS,ioos:station:USF.COMPS:C10:1,2017-02-03T18:35:00Z,27.1690,-82.9260,1020.36,1111122 
COMPS,ioos:station:USF.COMPS:C10:1,2017-02-03T19:05:00Z,27.1690,-82.9260,1020.06,1111122 
COMPS,ioos:station:USF.COMPS:C10:1,2017-02-03T19:35:00Z,27.1690,-82.9260,1019.83,1111122 
COMPS,ioos:station:USF.COMPS:C10:1,2017-02-03T21:05:00Z,27.1690,-82.9260,1019.54,1111122 
COMPS,ioos:station:USF.COMPS:C10:1,2017-02-03T21:35:00Z,27.1690,-82.9260,1019.8,1111122 
COMPS,ioos:station:USF.COMPS:C10:1,2017-02-03T22:05:00Z,27.1690,-82.9260,1019.89,1111122 
COMPS,ioos:station:USF.COMPS:C10:1,2017-02-03T22:35:00Z,27.1690,-82.9260,1020.13,1111122 
COMPS,ioos:station:USF.COMPS:C10:1,2017-02-04T00:05:00Z,27.1690,-82.9260,1020.41,1111122 
COMPS,ioos:station:USF.COMPS:C10:1,2017-02-04T00:35:00Z,27.1690,-82.9260,1020.78,1111122 
COMPS,ioos:station:USF.COMPS:C10:1,2017-02-04T01:05:00Z,27.1690,-82.9260,1021.1,1111122 
COMPS,ioos:station:USF.COMPS:C10:1,2017-02-04T01:35:00Z,27.1690,-82.9260,1021.31,1111122 
COMPS,ioos:station:USF.COMPS:C10:1,2017-02-04T02:05:00Z,27.1690,-82.9260,1021.37,1111122 
COMPS,ioos:station:USF.COMPS:C10:1,2017-02-04T02:35:00Z,27.1690,-82.9260,1021.55,1111122 
COMPS,ioos:station:USF.COMPS:C10:1,2017-02-04T03:05:00Z,27.1690,-82.9260,1021.6,1111122 
COMPS,ioos:station:USF.COMPS:C10:1,2017-02-04T03:35:00Z,27.1690,-82.9260,1021.67,1111122 
COMPS,ioos:station:USF.COMPS:C10:1,2017-02-04T04:05:00Z,27.1690,-82.9260,1021.67,1111122 
COMPS,ioos:station:USF.COMPS:C10:1,2017-02-04T04:35:00Z,27.1690,-82.9260,1021.52,1111122 
COMPS,ioos:station:USF.COMPS:C10:1,2017-02-04T05:05:00Z,27.1690,-82.9260,1021.32,1111122 
COMPS,ioos:station:USF.COMPS:C10:1,2017-02-04T05:35:00Z,27.1690,-82.9260,1020.93,1111122 
COMPS,ioos:station:USF.COMPS:C10:1,2017-02-04T06:05:00Z,27.1690,-82.9260,1020.67,1111122 
COMPS,ioos:station:USF.COMPS:C10:1,2017-02-04T06:35:00Z,27.1690,-82.9260,1020.6,1111122 
COMPS,ioos:station:USF.COMPS:C10:1,2017-02-04T07:05:00Z,27.1690,-82.9260,1020.53,1111122 
COMPS,ioos:station:USF.COMPS:C10:1,2017-02-04T07:35:00Z,27.1690,-82.9260,1020.36,1111122 
COMPS,ioos:station:USF.COMPS:C10:1,2017-02-04T08:05:00Z,27.1690,-82.9260,1020.06,1111122 
COMPS,ioos:station:USF.COMPS:C10:1,2017-02-04T08:35:00Z,27.1690,-82.9260,1020.01,1111122 
COMPS,ioos:station:USF.COMPS:C10:1,2017-02-04T09:05:00Z,27.1690,-82.9260,1020.2,1111122 
COMPS,ioos:station:USF.COMPS:C10:1,2017-02-04T09:35:00Z,27.1690,-82.9260,1020.15,1111122 
COMPS,ioos:station:USF.COMPS:C10:1,2017-02-04T10:05:00Z,27.1690,-82.9260,1020.29,1111122 
COMPS,ioos:station:USF.COMPS:C10:1,2017-02-04T10:35:00Z,27.1690,-82.9260,1020.54,1111122 
COMPS,ioos:station:USF.COMPS:C10:1,2017-02-04T12:05:00Z,27.1690,-82.9260,1021.2,1111122 
COMPS,ioos:station:USF.COMPS:C10:1,2017-02-04T12:35:00Z,27.1690,-82.9260,1021.55,1111122 
COMPS,ioos:station:USF.COMPS:C10:1,2017-02-04T15:05:00Z,27.1690,-82.9260,1023.0,1111122 
COMPS,ioos:station:USF.COMPS:C10:1,2017-02-04T15:35:00Z,27.1690,-82.9260,1023.17,1111122 
COMPS,ioos:station:USF.COMPS:C10:1,2017-02-04T22:05:00Z,27.1690,-82.9260,1019.98,1111122 
COMPS,ioos:station:USF.COMPS:C10:1,2017-02-04T22:35:00Z,27.1690,-82.9260,1020.15,1111122 
COMPS,ioos:station:USF.COMPS:C10:1,2017-02-04T23:05:00Z,27.1690,-82.9260,1020.34,1111122 
COMPS,ioos:station:USF.COMPS:C10:1,2017-02-04T23:35:00Z,27.1690,-82.9260,1020.41,1111122 
COMPS,ioos:station:USF.COMPS:C10:1,2017-02-05T00:05:00Z,27.1690,-82.9260,1020.69,1111122 
COMPS,ioos:station:USF.COMPS:C10:1,2017-02-05T00:35:00Z,27.1690,-82.9260,1020.9,1111122 
COMPS,ioos:station:USF.COMPS:C10:1,2017-02-05T01:05:00Z,27.1690,-82.9260,1021.2,1111122 
COMPS,ioos:station:USF.COMPS:C10:1,2017-02-05T01:35:00Z,27.1690,-82.9260,1021.36,1111122 
COMPS,ioos:station:USF.COMPS:C10:1,2017-02-05T02:05:00Z,27.1690,-82.9260,1021.38,1111122 
COMPS,ioos:station:USF.COMPS:C10:1,2017-02-05T02:35:00Z,27.1690,-82.9260,1021.38,1111122 
COMPS,ioos:station:USF.COMPS:C10:1,2017-02-05T03:05:00Z,27.1690,-82.9260,1021.38,1111122 
COMPS,ioos:station:USF.COMPS:C10:1,2017-02-05T03:35:00Z,27.1690,-82.9260,1021.38,1111122 
COMPS,ioos:station:USF.COMPS:C10:1,2017-02-05T08:05:00Z,27.1690,-82.9260,1020.01,1111122 
COMPS,ioos:station:USF.COMPS:C10:1,2017-02-05T08:35:00Z,27.1690,-82.9260,1019.71,1111122 
COMPS,ioos:station:USF.COMPS:C10:1,2017-02-05T13:05:00Z,27.1690,-82.9260,1021.36,1111122 
COMPS,ioos:station:USF.COMPS:C10:1,2017-02-05T13:35:00Z,27.1690,-82.9260,1021.72,1111122 
COMPS,ioos:station:USF.COMPS:C10:1,2017-02-05T14:05:00Z,27.1690,-82.9260,1021.81,1111122 
COMPS,ioos:station:USF.COMPS:C10:1,2017-02-05T14:35:00Z,27.1690,-82.9260,1022.08,1111122 
COMPS,ioos:station:USF.COMPS:C10:1,2017-02-05T15:05:00Z,27.1690,-82.9260,1022.21,1111122 
COMPS,ioos:station:USF.COMPS:C10:1,2017-02-05T15:35:00Z,27.1690,-82.9260,1022.25,1111122 
COMPS,ioos:station:USF.COMPS:C10:1,2017-02-05T16:05:00Z,27.1690,-82.9260,1022.07,1111122 
COMPS,ioos:station:USF.COMPS:C10:1,2017-02-05T16:35:00Z,27.1690,-82.9260,1021.84,1111122 
COMPS,ioos:station:USF.COMPS:C10:1,2017-02-05T17:05:00Z,27.1690,-82.9260,1021.38,1111122 
COMPS,ioos:station:USF.COMPS:C10:1,2017-02-05T17:35:00Z,27.1690,-82.9260,1020.83,1111122 
COMPS,ioos:station:USF.COMPS:C10:1,2017-02-05T18:05:00Z,27.1690,-82.9260,1020.31,1111122 
COMPS,ioos:station:USF.COMPS:C10:1,2017-02-05T18:35:00Z,27.1690,-82.9260,1019.9,1111122 
COMPS,ioos:station:USF.COMPS:C10:1,2017-02-05T19:05:00Z,27.1690,-82.9260,1019.64,1111122 
COMPS,ioos:station:USF.COMPS:C10:1,2017-02-05T19:35:00Z,27.1690,-82.9260,1019.38,1111122 
COMPS,ioos:station:USF.COMPS:C10:1,2017-02-05T20:05:00Z,27.1690,-82.9260,1019.1,1111122 
COMPS,ioos:station:USF.COMPS:C10:1,2017-02-05T20:35:00Z,27.1690,-82.9260,1018.98,1111122 
COMPS,ioos:station:USF.COMPS:C10:1,2017-02-05T21:05:00Z,27.1690,-82.9260,1018.98,1111122 
COMPS,ioos:station:USF.COMPS:C10:1,2017-02-05T21:35:00Z,27.1690,-82.9260,1019.11,1111122 
COMPS,ioos:station:USF.COMPS:C10:1,2017-02-05T22:05:00Z,27.1690,-82.9260,1019.38,1111122 
COMPS,ioos:station:USF.COMPS:C10:1,2017-02-05T22:35:00Z,27.1690,-82.9260,1019.63,1111122 
COMPS,ioos:station:USF.COMPS:C10:1,2017-02-06T00:05:00Z,27.1690,-82.9260,1020.13,1111122 
COMPS,ioos:station:USF.COMPS:C10:1,2017-02-06T00:35:00Z,27.1690,-82.9260,1020.32,1111122 
COMPS,ioos:station:USF.COMPS:C10:1,2017-02-06T08:05:00Z,27.1690,-82.9260,1019.11,1111122 
COMPS,ioos:station:USF.COMPS:C10:1,2017-02-06T08:35:00Z,27.1690,-82.9260,1019.12,1111122 
COMPS,ioos:station:USF.COMPS:C10:1,2017-02-06T09:05:00Z,27.1690,-82.9260,1019.12,1111122 
COMPS,ioos:station:USF.COMPS:C10:1,2017-02-06T09:35:00Z,27.1690,-82.9260,1019.19,1111122 
COMPS,ioos:station:USF.COMPS:C10:1,2017-02-06T11:05:00Z,27.1690,-82.9260,1019.84,1111122 
COMPS,ioos:station:USF.COMPS:C10:1,2017-02-06T11:35:00Z,27.1690,-82.9260,1020.06,1111122 
COMPS,ioos:station:USF.COMPS:C10:1,2017-02-06T14:05:00Z,27.1690,-82.9260,1020.83,1111122 
COMPS,ioos:station:USF.COMPS:C10:1,2017-02-06T14:35:00Z,27.1690,-82.9260,1021.06,1111122 
COMPS,ioos:station:USF.COMPS:C10:1,2017-02-06T16:05:00Z,27.1690,-82.9260,1021.26,1111122 
COMPS,ioos:station:USF.COMPS:C10:1,2017-02-06T16:35:00Z,27.1690,-82.9260,1021.03,1111122 
COMPS,ioos:station:USF.COMPS:C10:1,2017-02-06T19:05:00Z,27.1690,-82.9260,1018.68,1111122 
COMPS,ioos:station:USF.COMPS:C10:1,2017-02-06T19:35:00Z,27.1690,-82.9260,1018.49,1111122 
COMPS,ioos:station:USF.COMPS:C10:1,2017-02-06T20:05:00Z,27.1690,-82.9260,1018.28,1111122 
COMPS,ioos:station:USF.COMPS:C10:1,2017-02-06T20:35:00Z,27.1690,-82.9260,1018.15,1111122 
COMPS,ioos:station:USF.COMPS:C10:1,2017-02-06T22:05:00Z,27.1690,-82.9260,1018.15,1111122 
COMPS,ioos:station:USF.COMPS:C10:1,2017-02-06T22:35:00Z,27.1690,-82.9260,1018.15,1111122 
COMPS,ioos:station:USF.COMPS:C10:1,2017-02-07T00:05:00Z,27.1690,-82.9260,1018.08,1111122 
COMPS,ioos:station:USF.COMPS:C10:1,2017-02-07T00:35:00Z,27.1690,-82.9260,1018.11,1111122 
COMPS,ioos:station:USF.COMPS:C10:1,2017-02-07T01:05:00Z,27.1690,-82.9260,1018.38,1111122 
COMPS,ioos:station:USF.COMPS:C10:1,2017-02-07T01:35:00Z,27.1690,-82.9260,1018.51,1111122 
COMPS,ioos:station:USF.COMPS:C10:1,2017-02-07T04:05:00Z,27.1690,-82.9260,1018.43,1111122 
COMPS,ioos:station:USF.COMPS:C10:1,2017-02-07T04:35:00Z,27.1690,-82.9260,1018.15,1111122 
COMPS,ioos:station:USF.COMPS:C10:1,2017-02-07T05:05:00Z,27.1690,-82.9260,1017.79,1111122 
COMPS,ioos:station:USF.COMPS:C10:1,2017-02-07T05:35:00Z,27.1690,-82.9260,1017.65,1111122 
COMPS,ioos:station:USF.COMPS:C10:1,2017-02-07T06:05:00Z,27.1690,-82.9260,1017.3,1111122 
COMPS,ioos:station:USF.COMPS:C10:1,2017-02-07T06:35:00Z,27.1690,-82.9260,1017.23,1111122 
COMPS,ioos:station:USF.COMPS:C10:1,2017-02-07T07:05:00Z,27.1690,-82.9260,1017.13,1111122 
COMPS,ioos:station:USF.COMPS:C10:1,2017-02-07T07:35:00Z,27.1690,-82.9260,1016.86,1111122 
COMPS,ioos:station:USF.COMPS:C10:1,2017-02-07T08:05:00Z,27.1690,-82.9260,1016.86,1111122 
COMPS,ioos:station:USF.COMPS:C10:1,2017-02-07T08:35:00Z,27.1690,-82.9260,1016.74,1111122 
COMPS,ioos:station:USF.COMPS:C10:1,2017-02-07T09:05:00Z,27.1690,-82.9260,1016.75,1111122 
COMPS,ioos:station:USF.COMPS:C10:1,2017-02-07T09:35:00Z,27.1690,-82.9260,1016.48,1111122 
COMPS,ioos:station:USF.COMPS:C10:1,2017-02-07T10:05:00Z,27.1690,-82.9260,1016.6,1111122 
COMPS,ioos:station:USF.COMPS:C10:1,2017-02-07T10:35:00Z,27.1690,-82.9260,1016.35,1111122 
COMPS,ioos:station:USF.COMPS:C10:1,2017-02-07T11:05:00Z,27.1690,-82.9260,1016.38,1111122 
COMPS,ioos:station:USF.COMPS:C10:1,2017-02-07T11:35:00Z,27.1690,-82.9260,1016.51,1111122 
COMPS,ioos:station:USF.COMPS:C10:1,2017-02-07T12:05:00Z,27.1690,-82.9260,1016.83,1111122 
COMPS,ioos:station:USF.COMPS:C10:1,2017-02-07T12:35:00Z,27.1690,-82.9260,1016.98,1111122 
COMPS,ioos:station:USF.COMPS:C10:1,2017-02-07T13:05:00Z,27.1690,-82.9260,1016.88,1111122 
COMPS,ioos:station:USF.COMPS:C10:1,2017-02-07T13:35:00Z,27.1690,-82.9260,1016.78,1111122 
COMPS,ioos:station:USF.COMPS:C10:1,2017-02-07T14:05:00Z,27.1690,-82.9260,1017.17,1111122 
COMPS,ioos:station:USF.COMPS:C10:1,2017-02-07T14:35:00Z,27.1690,-82.9260,1017.34,1111122 
COMPS,ioos:station:USF.COMPS:C10:1,2017-02-07T15:05:00Z,27.1690,-82.9260,1017.34,1111122 
COMPS,ioos:station:USF.COMPS:C10:1,2017-02-07T15:35:00Z,27.1690,-82.9260,1017.2,1111122 
COMPS,ioos:station:USF.COMPS:C10:1,2017-02-07T16:05:00Z,27.1690,-82.9260,1016.84,1111122 
COMPS,ioos:station:USF.COMPS:C10:1,2017-02-07T16:35:00Z,27.1690,-82.9260,1016.51,1111122 
COMPS,ioos:station:USF.COMPS:C10:1,2017-02-07T17:05:00Z,27.1690,-82.9260,1016.33,1111122 
COMPS,ioos:station:USF.COMPS:C10:1,2017-02-07T17:35:00Z,27.1690,-82.9260,1015.91,1111122 
COMPS,ioos:station:USF.COMPS:C10:1,2017-02-07T18:05:00Z,27.1690,-82.9260,1015.19,1111122 
COMPS,ioos:station:USF.COMPS:C10:1,2017-02-07T18:35:00Z,27.1690,-82.9260,1014.71,1111122 
COMPS,ioos:station:USF.COMPS:C10:1,2017-02-07T19:05:00Z,27.1690,-82.9260,1014.25,1111122 
COMPS,ioos:station:USF.COMPS:C10:1,2017-02-07T19:35:00Z,27.1690,-82.9260,1013.96,1111122 
COMPS,ioos:station:USF.COMPS:C10:1,2017-02-07T20:05:00Z,27.1690,-82.9260,1013.48,1111122 
COMPS,ioos:station:USF.COMPS:C10:1,2017-02-07T20:35:00Z,27.1690,-82.9260,1013.24,1111122 
COMPS,ioos:station:USF.COMPS:C10:1,2017-02-07T21:05:00Z,27.1690,-82.9260,1013.1,1111122 
COMPS,ioos:station:USF.COMPS:C10:1,2017-02-07T21:35:00Z,27.1690,-82.9260,1013.09,1111122 
COMPS,ioos:station:USF.COMPS:C10:1,2017-02-07T22:05:00Z,27.1690,-82.9260,1012.88,1111122 
COMPS,ioos:station:USF.COMPS:C10:1,2017-02-07T22:35:00Z,27.1690,-82.9260,1012.86,1111122 
COMPS,ioos:station:USF.COMPS:C10:1,2017-02-07T23:05:00Z,27.1690,-82.9260,1012.33,1111122 
COMPS,ioos:station:USF.COMPS:C10:1,2017-02-07T23:35:00Z,27.1690,-82.9260,1012.49,1111122 
COMPS,ioos:station:USF.COMPS:C10:1,2017-02-08T00:05:00Z,27.1690,-82.9260,1012.61,1111122 
COMPS,ioos:station:USF.COMPS:C10:1,2017-02-08T00:35:00Z,27.1690,-82.9260,1013.14,1111122 
COMPS,ioos:station:USF.COMPS:C10:1,2017-02-08T01:05:00Z,27.1690,-82.9260,1012.86,1111122 
COMPS,ioos:station:USF.COMPS:C10:1,2017-02-08T01:35:00Z,27.1690,-82.9260,1012.95,1111122 
COMPS,ioos:station:USF.COMPS:C10:1,2017-02-08T02:05:00Z,27.1690,-82.9260,1013.13,1111122 
COMPS,ioos:station:USF.COMPS:C10:1,2017-02-08T02:35:00Z,27.1690,-82.9260,1012.83,1111122 
COMPS,ioos:station:USF.COMPS:C10:1,2017-02-08T03:05:00Z,27.1690,-82.9260,1013.04,1111122 
COMPS,ioos:station:USF.COMPS:C10:1,2017-02-08T03:35:00Z,27.1690,-82.9260,1012.84,1111122 
COMPS,ioos:station:USF.COMPS:C10:1,2017-02-08T04:05:00Z,27.1690,-82.9260,1012.62,1111122 
COMPS,ioos:station:USF.COMPS:C10:1,2017-02-08T04:35:00Z,27.1690,-82.9260,1012.47,1111122 
COMPS,ioos:station:USF.COMPS:C10:1,2017-02-08T05:05:00Z,27.1690,-82.9260,1011.93,1111122 
COMPS,ioos:station:USF.COMPS:C10:1,2017-02-08T05:35:00Z,27.1690,-82.9260,1012.19,1111122 
COMPS,ioos:station:USF.COMPS:C10:1,2017-02-08T06:05:00Z,27.1690,-82.9260,1011.93,1111122 
COMPS,ioos:station:USF.COMPS:C10:1,2017-02-08T06:35:00Z,27.1690,-82.9260,1012.29,1111122 
COMPS,ioos:station:USF.COMPS:C10:1,2017-02-08T09:05:00Z,27.1690,-82.9260,1013.03,1111122 
COMPS,ioos:station:USF.COMPS:C10:1,2017-02-08T09:35:00Z,27.1690,-82.9260,1012.82,1111122 
COMPS,ioos:station:USF.COMPS:C10:1,2017-02-08T10:05:00Z,27.1690,-82.9260,1012.57,1111122 
COMPS,ioos:station:USF.COMPS:C10:1,2017-02-08T10:35:00Z,27.1690,-82.9260,1012.41,1111122 
COMPS,ioos:station:USF.COMPS:C10:1,2017-02-08T11:05:00Z,27.1690,-82.9260,1012.25,1111122 
COMPS,ioos:station:USF.COMPS:C10:1,2017-02-08T11:35:00Z,27.1690,-82.9260,1012.33,1111122 
COMPS,ioos:station:USF.COMPS:C10:1,2017-02-08T12:05:00Z,27.1690,-82.9260,1012.42,1111122 
COMPS,ioos:station:USF.COMPS:C10:1,2017-02-08T12:35:00Z,27.1690,-82.9260,1012.37,1111122 
COMPS,ioos:station:USF.COMPS:C10:1,2017-02-08T13:05:00Z,27.1690,-82.9260,1012.79,1111122 
COMPS,ioos:station:USF.COMPS:C10:1,2017-02-08T13:35:00Z,27.1690,-82.9260,1013.0,1111122 
COMPS,ioos:station:USF.COMPS:C10:1,2017-02-08T14:05:00Z,27.1690,-82.9260,1013.04,1111122 
COMPS,ioos:station:USF.COMPS:C10:1,2017-02-08T14:35:00Z,27.1690,-82.9260,1013.36,1111122 
COMPS,ioos:station:USF.COMPS:C10:1,2017-02-08T15:05:00Z,27.1690,-82.9260,1013.66,1111122 
COMPS,ioos:station:USF.COMPS:C10:1,2017-02-08T15:35:00Z,27.1690,-82.9260,1013.87,1111122 
COMPS,ioos:station:USF.COMPS:C10:1,2017-02-08T16:05:00Z,27.1690,-82.9260,1013.71,1111122 
COMPS,ioos:station:USF.COMPS:C10:1,2017-02-08T16:35:00Z,27.1690,-82.9260,1013.76,1111122 
COMPS,ioos:station:USF.COMPS:C10:1,2017-02-08T17:05:00Z,27.1690,-82.9260,1013.63,1111122 
COMPS,ioos:station:USF.COMPS:C10:1,2017-02-08T17:35:00Z,27.1690,-82.9260,1013.58,1111122 
COMPS,ioos:station:USF.COMPS:C10:1,2017-02-08T18:05:00Z,27.1690,-82.9260,1013.33,1111122 
COMPS,ioos:station:USF.COMPS:C10:1,2017-02-08T18:35:00Z,27.1690,-82.9260,1013.03,1111122 
COMPS,ioos:station:USF.COMPS:C10:1,2017-02-08T19:05:00Z,27.1690,-82.9260,1012.98,1111122 
COMPS,ioos:station:USF.COMPS:C10:1,2017-02-08T19:35:00Z,27.1690,-82.9260,1012.72,1111122 
COMPS,ioos:station:USF.COMPS:C10:1,2017-02-08T20:05:00Z,27.1690,-82.9260,1012.73,1111122 
COMPS,ioos:station:USF.COMPS:C10:1,2017-02-08T20:35:00Z,27.1690,-82.9260,1012.69,1111122 
COMPS,ioos:station:USF.COMPS:C10:1,2017-02-08T21:05:00Z,27.1690,-82.9260,1012.58,1111122 
COMPS,ioos:station:USF.COMPS:C10:1,2017-02-08T21:35:00Z,27.1690,-82.9260,1012.6,1111122 
COMPS,ioos:station:USF.COMPS:C10:1,2017-02-08T22:05:00Z,27.1690,-82.9260,1012.59,1111122 
COMPS,ioos:station:USF.COMPS:C10:1,2017-02-08T22:35:00Z,27.1690,-82.9260,1012.6,1111122 
COMPS,ioos:station:USF.COMPS:C10:1,2017-02-08T23:05:00Z,27.1690,-82.9260,1012.71,1111122 
COMPS,ioos:station:USF.COMPS:C10:1,2017-02-08T23:35:00Z,27.1690,-82.9260,1013.02,1111122 
COMPS,ioos:station:USF.COMPS:C10:1,2017-02-09T00:05:00Z,27.1690,-82.9260,1013.43,1111122 
COMPS,ioos:station:USF.COMPS:C10:1,2017-02-09T00:35:00Z,27.1690,-82.9260,1013.5,1111122 
COMPS,ioos:station:USF.COMPS:C10:1,2017-02-09T01:05:00Z,27.1690,-82.9260,1013.73,1111122 
COMPS,ioos:station:USF.COMPS:C10:1,2017-02-09T01:35:00Z,27.1690,-82.9260,1013.68,1111122 
COMPS,ioos:station:USF.COMPS:C10:1,2017-02-09T02:05:00Z,27.1690,-82.9260,1013.8,1111122 
COMPS,ioos:station:USF.COMPS:C10:1,2017-02-09T02:35:00Z,27.1690,-82.9260,1013.84,1111122 